Location: Calais Saint-Pierre
(50.9509°N, 1.8522°E)
Time: 08:17:12
(UTC+00:00)

Cosmos 1470 - Pass Details

Date: 15 May 2026
Orbit: 420 x 431 km, 82.5° (Epoch: 6 June)

Event Time Altitude Azimuth Distance (km) Brightness Sun altitude
Rises 22:43:38 0° 349° (N) 2,389 7.8 -18.5°
Reaches altitude 10° 22:45:41 10° 350° (N) 1,518 6.3 -18.6°
Maximum altitude 22:48:59 87° 78° (ENE) 429 2.2 -18.8°
Enters shadow 22:49:18 72° 161° (SSE) 449 2.1 -18.8°
